• In India
  • List of Countries
  • For 7 days
  • Water Temperature
  • Satellite Maps
  • Weather Map
  • Weather Widgets
  • user-avatar
    Login

    Hourly Weather Innsbruck

    Today, 24 September, Sunday

    Time Temperature Precipitation Wind Pressure Humidity
    00:00 +3°C° 0.1 mm 1 mps 597 mmHg 95%
    01:00 +3°C° 0.1 mm 1 mps 597 mmHg 95%
    02:00 +3°C° 0.3 mm 1 mps 597 mmHg 94%
    03:00 +3°C° 0.3 mm 1 mps 597 mmHg 94%
    04:00 +3°C° 0.3 mm 1 mps 597 mmHg 94%
    05:00 +3°C° 0.4 mm 1 mps 597 mmHg 93%
    06:00 +3°C° 0.4 mm 1 mps 597 mmHg 93%
    07:00 +3°C° 0.4 mm 1 mps 597 mmHg 93%
    08:00 +4°C° 0.3 mm 1 mps 597 mmHg 89%
    09:00 +5°C° 0.3 mm 1 mps 598 mmHg 85%
    10:00 +6°C° 0.3 mm 1 mps 598 mmHg 81%
    11:00 +7°C° 0.1 mm 1 mps 599 mmHg 77%
    12:00 +7°C° 0.1 mm 2 mps 599 mmHg 73%
    13:00 +7°C° 0.1 mm 2 mps 599 mmHg 70%
    14:00 +7°C° 0.2 mm 2 mps 599 mmHg 71%
    15:00 +7°C° 0.2 mm 2 mps 599 mmHg 73%
    16:00 +6°C° 0.2 mm 2 mps 598 mmHg 75%
    17:00 +6°C° 0.1 mm 1 mps 598 mmHg 81%
    18:00 +4°C° 0.1 mm 1 mps 597 mmHg 86%
    19:00 +3°C° 0.1 mm 1 mps 597 mmHg 92%
    20:00 +3°C° 0 mm 1 mps 597 mmHg 93%
    21:00 +2°C° 0 mm 1 mps 597 mmHg 93%
    22:00 +2°C° 0 mm 1 mps 597 mmHg 94%
    23:00 +2°C° 0 mm 1 mps 597 mmHg 94%

    Tomorrow, 25 September, Monday

    Time Temperature Precipitation Wind Pressure Humidity
    00:00 +1°C° 0 mm 1 mps 596 mmHg 94%
    01:00 +1°C° 0 mm 1 mps 596 mmHg 94%
    02:00 0°C° 0 mm 1 mps 596 mmHg 93%
    03:00 0°C° 0 mm 1 mps 596 mmHg 92%
    04:00 0°C° 0 mm 1 mps 595 mmHg 90%
    05:00 0°C° 0 mm 1 mps 596 mmHg 89%
    06:00 +1°C° 0 mm 1 mps 596 mmHg 87%
    07:00 +1°C° 0 mm 1 mps 596 mmHg 85%
    08:00 +3°C° 0 mm 1 mps 597 mmHg 77%
    09:00 +5°C° 0 mm 0 mps 598 mmHg 70%
    10:00 +7°C° 0 mm 0 mps 599 mmHg 62%
    11:00 +8°C° 0 mm 0 mps 599 mmHg 59%
    12:00 +10°C° 0 mm 1 mps 599 mmHg 56%
    13:00 +10°C° 0 mm 1 mps 599 mmHg 52%
    14:00 +10°C° 0 mm 1 mps 599 mmHg 55%
    15:00 +10°C° 0 mm 1 mps 598 mmHg 57%
    16:00 +9°C° 0 mm 1 mps 598 mmHg 60%
    17:00 +7°C° 0 mm 1 mps 597 mmHg 68%
    18:00 +5°C° 0 mm 1 mps 597 mmHg 76%
    19:00 +2°C° 0 mm 0 mps 596 mmHg 84%
    20:00 +2°C° 0 mm 1 mps 596 mmHg 85%
    21:00 +2°C° 0 mm 1 mps 596 mmHg 86%
    22:00 +1°C° 0 mm 1 mps 596 mmHg 87%
    23:00 +1°C° 0 mm 1 mps 596 mmHg 87%

    Day after tomorrow, 26 September, Tuesday

    Time Temperature Precipitation Wind Pressure Humidity
    00:00 +1°C° 0 mm 1 mps 596 mmHg 86%
    01:00 +1°C° 0 mm 1 mps 596 mmHg 86%
    02:00 +1°C° 0 mm 1 mps 596 mmHg 86%
    03:00 +1°C° 0 mm 1 mps 596 mmHg 85%
    04:00 +1°C° 0 mm 1 mps 596 mmHg 85%
    05:00 +1°C° 0 mm 1 mps 597 mmHg 84%
    06:00 +2°C° 0 mm 1 mps 597 mmHg 82%
    07:00 +2°C° 0 mm 1 mps 598 mmHg 81%
    08:00 +5°C° 0 mm 1 mps 598 mmHg 75%
    09:00 +7°C° 0 mm 1 mps 599 mmHg 69%
    10:00 +9°C° 0 mm 1 mps 600 mmHg 63%
    11:00 +9°C° 0 mm 1 mps 601 mmHg 61%
    12:00 +10°C° 0 mm 1 mps 601 mmHg 60%
    13:00 +11°C° 0 mm 1 mps 601 mmHg 58%
    14:00 +10°C° 0.1 mm 1 mps 601 mmHg 61%
    15:00 +10°C° 0.1 mm 1 mps 601 mmHg 64%
    16:00 +9°C° 0.1 mm 1 mps 600 mmHg 68%
    17:00 +7°C° 0.1 mm 1 mps 600 mmHg 75%
    18:00 +5°C° 0.1 mm 1 mps 599 mmHg 82%
    19:00 +3°C° 0.1 mm 1 mps 598 mmHg 90%
    20:00 +3°C° 0 mm 1 mps 598 mmHg 91%
    21:00 +2°C° 0 mm 1 mps 598 mmHg 92%
    22:00 +2°C° 0 mm 1 mps 598 mmHg 92%
    23:00 +2°C° 0 mm 1 mps 598 mmHg 92%

    27 September, Wednesday

    Time Temperature Precipitation Wind Pressure Humidity
    00:00 +2°C° 0 mm 1 mps 598 mmHg 91%
    01:00 +1°C° 0 mm 1 mps 598 mmHg 90%
    02:00 +1°C° 0 mm 1 mps 598 mmHg 89%
    03:00 +1°C° 0 mm 1 mps 598 mmHg 89%
    04:00 +1°C° 0 mm 1 mps 598 mmHg 88%
    05:00 +1°C° 0 mm 1 mps 598 mmHg 87%
    06:00 +2°C° 0 mm 1 mps 599 mmHg 86%
    07:00 +2°C° 0 mm 1 mps 599 mmHg 85%
    08:00 +4°C° 0 mm 1 mps 600 mmHg 78%
    09:00 +7°C° 0 mm 1 mps 601 mmHg 70%
    10:00 +9°C° 0 mm 1 mps 602 mmHg 63%
    11:00 +10°C° 0 mm 1 mps 603 mmHg 60%
    12:00 +11°C° 0 mm 1 mps 603 mmHg 57%
    13:00 +12°C° 0 mm 1 mps 603 mmHg 55%
    14:00 +11°C° 0 mm 1 mps 603 mmHg 58%
    15:00 +11°C° 0 mm 1 mps 602 mmHg 62%
    16:00 +10°C° 0 mm 1 mps 602 mmHg 65%
    17:00 +8°C° 0.1 mm 1 mps 601 mmHg 73%
    18:00 +5°C° 0.1 mm 0 mps 601 mmHg 82%
    19:00 +2°C° 0.1 mm 0 mps 600 mmHg 90%
    20:00 +2°C° 0 mm 0 mps 600 mmHg 90%
    21:00 +3°C° 0 mm 1 mps 600 mmHg 89%
    22:00 +3°C° 0 mm 1 mps 600 mmHg 89%
    23:00 +2°C° 0 mm 1 mps 600 mmHg 88%

    28 September, Thursday

    Time Temperature Precipitation Wind Pressure Humidity
    00:00 +2°C° 0 mm 1 mps 600 mmHg 87%
    01:00 +2°C° 0 mm 1 mps 600 mmHg 86%
    02:00 +2°C° 0 mm 1 mps 600 mmHg 86%
    03:00 +2°C° 0 mm 1 mps 600 mmHg 86%
    04:00 +2°C° 0 mm 1 mps 600 mmHg 86%
    05:00 +2°C° 0 mm 1 mps 600 mmHg 85%
    06:00 +2°C° 0 mm 1 mps 601 mmHg 85%
    07:00 +3°C° 0 mm 1 mps 601 mmHg 84%
    08:00 +5°C° 0 mm 1 mps 602 mmHg 76%
    09:00 +8°C° 0 mm 1 mps 603 mmHg 67%
    10:00 +11°C° 0 mm 1 mps 605 mmHg 59%
    11:00 +11°C° 0 mm 1 mps 605 mmHg 57%
    12:00 +12°C° 0 mm 1 mps 605 mmHg 54%
    13:00 +13°C° 0 mm 1 mps 605 mmHg 52%
    14:00 +12°C° 0 mm 1 mps 605 mmHg 55%
    15:00 +12°C° 0 mm 2 mps 604 mmHg 58%
    16:00 +10°C° 0 mm 2 mps 604 mmHg 60%
    17:00 +9°C° 0 mm 1 mps 603 mmHg 70%
    18:00 +7°C° 0 mm 1 mps 602 mmHg 80%
    19:00 +4°C° 0 mm 1 mps 602 mmHg 90%
    20:00 +4°C° 0 mm 1 mps 602 mmHg 91%
    21:00 +4°C° 0 mm 1 mps 602 mmHg 92%
    22:00 +3°C° 0 mm 1 mps 602 mmHg 93%
    23:00 +3°C° 0 mm 1 mps 601 mmHg 92%

    29 September, Friday

    Time Temperature Precipitation Wind Pressure Humidity
    00:00 +3°C° 0 mm 1 mps 601 mmHg 91%
    01:00 +2°C° 0 mm 1 mps 601 mmHg 90%
    02:00 +2°C° 0 mm 1 mps 601 mmHg 89%
    03:00 +2°C° 0 mm 1 mps 600 mmHg 88%
    04:00 +2°C° 0 mm 1 mps 600 mmHg 87%
    05:00 +2°C° 0 mm 1 mps 600 mmHg 85%
    06:00 +3°C° 0 mm 1 mps 601 mmHg 83%
    07:00 +3°C° 0 mm 1 mps 601 mmHg 81%
    08:00 +6°C° 0 mm 1 mps 602 mmHg 71%
    09:00 +9°C° 0 mm 1 mps 603 mmHg 61%
    10:00 +12°C° 0 mm 1 mps 604 mmHg 50%
    11:00 +12°C° 0 mm 1 mps 604 mmHg 48%
    12:00 +13°C° 0 mm 1 mps 604 mmHg 46%
    13:00 +14°C° 0 mm 1 mps 604 mmHg 43%
    14:00 +13°C° 0 mm 1 mps 604 mmHg 47%
    15:00 +13°C° 0 mm 1 mps 603 mmHg 50%
    16:00 +12°C° 0 mm 1 mps 603 mmHg 53%
    17:00 +10°C° 0 mm 1 mps 601 mmHg 64%
    18:00 +7°C° 0 mm 1 mps 600 mmHg 76%
    19:00 +3°C° 0 mm 0 mps 599 mmHg 87%
    20:00 +4°C° 0 mm 1 mps 599 mmHg 87%
    21:00 +4°C° 0 mm 1 mps 599 mmHg 87%
    22:00 +3°C° 0 mm 1 mps 599 mmHg 87%
    23:00 +3°C° 0 mm 1 mps 599 mmHg 87%
    Show more